This demonstration page uses our WeatherBlox Daily Observations layout. Learn more.

Left ArrowRight Arrow

40.92945, -100.16068

Hourly Observations for February 9, 2016

Temp ( °F °C ) Dew Point ( °F °C ) Humidity (%) Winds ( mph kmh ) Pressure ( in mb ) Visibility ( mi km ) Precip ( " mm )
12:15 am 00:15 Clear 25 -3.9 18 -8 73 73 WNW 10 17 30.33 1027 10 16.0934 N/A
12:35 am 00:35 Partly Cloudy 25 -3.9 18 -7.7 75 75 WNW 10 17 30.33 1027 10 16.0934 N/A
12:55 am 00:55 Cloudy 27 -3 19 -7 74 74 WNW 10 17 30.3 1026 10 16.0934 N/A
1:15 am 01:15 Cloudy 28 -2.2 20 -6.7 72 72 WNW 10 17 30.3 1026 10 16.0934 N/A
1:35 am 01:35 Cloudy 29 -1.5 20 -6.6 69 69 WNW 12 19 30.3 1026 10 16.0934 N/A
1:55 am 01:55 Cloudy 29 -1.5 20 -6.6 69 69 WNW 12 19 30.3 1026 10 16.0934 N/A
2:15 am 02:15 Mostly Cloudy 29 -1.8 20 -6.8 69 69 NW 9 15 30.3 1026 10 16.0934 N/A
2:35 am 02:35 Partly Cloudy 28 -2.1 19 -7 69 69 NW 12 19 30.3 1026 10 16.0934 N/A
2:55 am 02:55 Partly Cloudy 29 -1.8 19 -7.1 67 67 NW 10 17 30.3 1026 10 16.0934 N/A
3:15 am 03:15 Mostly Cloudy 28 -2.2 19 -7.1 69 69 NW 9 15 30.3 1026 10 16.0934 N/A
3:35 am 03:35 Mostly Cloudy 28 -2.1 19 -7 69 69 WNW 8 13 30.3 1026 10 16.0934 N/A
3:55 am 03:55 Mostly Cloudy 29 -1.8 19 -7.4 66 66 NW 10 17 30.3 1026 10 16.0934 N/A
4:15 am 04:15 Mostly Cloudy 27 -2.6 18 -7.7 68 68 NW 10 17 30.3 1026 10 16.0934 N/A
4:35 am 04:35 Mostly Cloudy 27 -3 17 -8.1 68 68 NW 7 11 30.3 1026 10 16.0934 N/A
4:55 am 04:55 Partly Cloudy 26 -3.1 18 -8 69 69 NNW 8 13 30.3 1026 10 16.0934 N/A
5:15 am 05:15 Clear 26 -3.3 17 -8.5 68 68 NW 7 11 30.33 1027 10 16.0934 N/A
5:35 am 05:35 Mostly Cloudy 23 -5 17 -8.3 78 78 W 6 9 30.33 1027 10 16.0934 N/A
5:55 am 05:55 Cloudy 24 -4.7 18 -8 78 78 WNW 6 9 30.36 1028 10 16.0934 N/A
6:15 am 06:15 Cloudy 25 -4 18 -7.6 76 76 WNW 6 9 30.39 1029 10 16.0934 N/A
6:35 am 06:35 Cloudy 26 -3.2 18 -7.6 72 72 NNW 7 11 30.36 1028 10 16.0934 N/A
6:55 am 06:55 Cloudy 28 -2.3 18 -7.7 67 67 N 10 17 30.36 1028 10 16.0934 N/A
7:15 am 07:15 Cloudy 28 -2.5 18 -7.7 68 68 NNW 9 15 30.36 1028 10 16.0934 N/A
7:35 am 07:35 Cloudy 28 -2.3 19 -7.5 68 68 NNW 7 11 30.36 1028 10 16.0934 N/A
7:55 am 07:55 Cloudy 26 -3.3 19 -7 76 76 W 6 9 30.36 1028 10 16.0934 N/A
8:15 am 08:15 Cloudy 27 -2.6 19 -7.1 72 72 NW 7 11 30.36 1028 10 16.0934 N/A
8:35 am 08:35 Cloudy 28 -2.5 19 -7 72 72 NW 8 13 30.36 1028 10 16.0934 N/A
8:55 am 08:55 Cloudy 29 -1.8 20 -6.7 70 70 NNW 8 13 30.36 1028 10 16.0934 N/A
9:15 am 09:15 Cloudy 29 -1.5 20 -6.6 69 69 N 8 13 30.39 1029 10 16.0934 N/A
9:35 am 09:35 Cloudy 30 -1.2 20 -6.5 68 68 N 7 11 30.39 1029 10 16.0934 N/A
9:55 am 09:55 Cloudy 30 -1 19 -7 64 64 N 12 19 30.39 1029 10 16.0934 N/A
10:15 am 10:15 Cloudy 30 -1 19 -7.2 63 63 N 12 19 30.39 1029 10 16.0934 N/A
10:35 am 10:35 Cloudy 30 -1 19 -7.3 63 63 N 10 17 30.42 1030 10 16.0934 N/A
10:55 am 10:55 Cloudy 30 -1 19 -7.3 63 63 N 14 22 30.42 1030 10 16.0934 N/A
11:15 am 11:15 Cloudy 30 -1 19 -7.4 62 62 N 13 20 30.42 1030 10 16.0934 N/A
11:35 am 11:35 Cloudy 30 -1.1 18 -7.8 61 61 NNE 13 20 30.42 1030 10 16.0934 N/A
11:55 am 11:55 Cloudy 30 -1 19 -7.4 62 62 N 9 15 30.42 1030 10 16.0934 N/A
12:15 pm 12:15 Cloudy 30 -1.1 19 -7.5 62 62 N 9 15 30.42 1030 10 16.0934 N/A
12:35 pm 12:35 Cloudy 30 -1 19 -7.4 62 62 N 8 13 30.42 1030 10 16.0934 N/A
12:55 pm 12:55 Cloudy 30 -1 18 -7.8 60 60 N 7 11 30.42 1030 10 16.0934 N/A
1:15 pm 13:15 Cloudy 30 -1 17 -8.4 58 58 N 7 11 30.42 1030 10 16.0934 N/A
1:35 pm 13:35 Cloudy 30 -1 16 -9.1 55 55 N 7 11 30.39 1029 10 16.0934 N/A
1:55 pm 13:55 Cloudy 30 -1 16 -9.1 55 55 N 5 7 30.39 1029 10 16.0934 N/A
2:15 pm 14:15 Cloudy 30 -1 15 -9.2 54 54 N 3 6 30.39 1029 10 16.0934 N/A
2:35 pm 14:35 Cloudy 31 -0.7 16 -8.8 55 55 N N/A 30.39 1029 10 16.0934 N/A
2:55 pm 14:55 Mostly Cloudy 32 undefined 17 -8.5 53 53 W 5 7 30.33 1027 10 16.0934 N/A
3:15 pm 15:15 Mostly Cloudy 31 -0.3 17 -8.2 56 56 N N/A 30.33 1027 10 16.0934 N/A
3:35 pm 15:35 Mostly Cloudy 32 undefined 18 -7.8 56 56 N N/A 30.33 1027 10 16.0934 N/A
3:55 pm 15:55 Cloudy 32 0.1 18 -7.7 56 56 N N/A 30.33 1027 10 16.0934 N/A
4:15 pm 16:15 Cloudy 32 undefined 19 -7.2 59 59 SW 3 6 30.33 1027 10 16.0934 N/A
4:35 pm 16:35 Cloudy 32 undefined 20 -6.5 62 62 SSW 3 6 30.33 1027 10 16.0934 N/A
4:55 pm 16:55 Cloudy 32 undefined 21 -6.1 64 64 S 5 7 30.3 1026 10 16.0934 N/A
5:15 pm 17:15 Cloudy 32 0.2 22 -5.8 64 64 SSE 6 9 30.3 1026 10 16.0934 N/A
5:35 pm 17:35 Cloudy 32 0.1 21 -5.9 64 64 SE 5 7 30.3 1026 10 16.0934 N/A
5:55 pm 17:55 Cloudy 32 undefined 22 -5.5 67 67 SSE 6 9 30.3 1026 10 16.0934 N/A
6:15 pm 18:15 Cloudy 32 -0.1 23 -4.9 70 70 S 6 9 30.3 1026 10 16.0934 N/A
6:35 pm 18:35 Cloudy 32 undefined 23 -4.8 70 70 S 8 13 30.3 1026 10 16.0934 N/A
6:55 pm 18:55 Cloudy 32 undefined 23 -4.8 70 70 S 6 9 30.3 1026 10 16.0934 N/A
7:15 pm 19:15 Cloudy 32 undefined 23 -4.9 70 70 SSW 8 13 30.3 1026 10 16.0934 N/A
7:35 pm 19:35 Cloudy 32 -0.1 23 -5 70 70 SSW 10 17 30.27 1025 10 16.0934 N/A
7:55 pm 19:55 Cloudy 31 -0.3 24 -4.6 73 73 SSW 6 9 30.27 1025 10 16.0934 N/A
8:15 pm 20:15 Cloudy 32 undefined 23 -4.8 70 70 SSW 6 9 30.27 1025 10 16.0934 N/A
8:35 pm 20:35 Cloudy 32 undefined 24 -4.5 72 72 S 3 6 30.27 1025 10 16.0934 N/A
8:55 pm 20:55 Cloudy 32 -0.1 24 -4.3 74 74 S 3 6 30.27 1025 10 16.0934 N/A
9:15 pm 21:15 Cloudy 32 -0.2 25 -4.1 75 75 S 5 7 30.27 1025 10 16.0934 N/A
9:35 pm 21:35 Cloudy 32 undefined 25 -4 75 75 SSW 5 7 30.24 1024 10 16.0934 N/A
9:55 pm 21:55 Cloudy 32 undefined 25 -3.8 76 76 SW 5 7 30.24 1024 10 16.0934 N/A
10:15 pm 22:15 Cloudy 32 0.2 25 -4 74 74 SSW 5 7 30.24 1024 10 16.0934 N/A
10:35 pm 22:35 Cloudy 33 0.6 25 -4.1 71 71 SW 7 11 30.21 1023 10 16.0934 N/A
10:55 pm 22:55 Cloudy 33 0.8 25 -4 71 71 N N/A 30.21 1023 10 16.0934 N/A
11:15 pm 23:15 Cloudy 33 0.8 25 -3.9 71 71 N N/A 30.21 1023 10 16.0934 N/A
11:35 pm 23:35 Cloudy 32 0.2 25 -3.7 75 75 N N/A 30.21 1023 10 16.0934 N/A
11:55 pm 23:55 Cloudy 32 -0.1 25 -3.9 76 76 N N/A 30.21 1023 10 16.0934 N/A

Powered by AerisWeather